Regional Weather Roundup
Issued by NWS Goodland, KS

Home | Current Version | Previous Version | Text Only | Print | Product List | Glossary On
Versions: 1 2 3 4 5 6 7 8 9 10 11 12 13 14 15 16 17 18 19 20 21 22 23 24 25 26 27 28 29 30 31 32 33 34 35 36 37 38 39 40 41 42 43 44 45 46 47 48 49 50
000
ASUS43 KGLD 290408
RWRGLD

GOODLAND FORECAST AREA HOURLY WEATHER ROUNDUP
NATIONAL WEATHER SERVICE GOODLAND KS
1000 PM MDT SUN AUG 28 2016

...OFFICIAL OBSERVATIONS...

CITY           SKY/WX    TMP DP  RH WIND       PRES   REMARKS
GOODLAND KS    PTCLDY    67  61  81 S7        30.16R
HILL CITY KS   PTCLDY    72  64  76 S6        30.14R
IMPERIAL NEB   CLEAR     66  60  81 SE3       30.15R
MCCOOK NEB     PTCLDY    69  61  75 SE8       30.13R
AKRON CO       PTCLDY    68  49  50 W16       30.23S
BURLINGTON CO  CLEAR     68  57  68 S9        30.19R
LIMON CO       CLOUDY    65  49  56 N14       30.27R
$$

...UNOFFICIAL OBSERVATIONS...

CITY           SKY/WX    TMP DP  RH WIND       PRES   REMARKS
COLBY KS       CLEAR     72  64  78 SE12      30.17R
LENORA KS        N/A     72  32  23 MISG        N/A
NORTON KS      PTCLDY    73  61  64 SE7       30.12S
SHARON SPRINGS   N/A     69  63  81 SE9         N/A
TRENTON NEB      N/A     69  32  25 MISG        N/A
KIT CARSON CO    N/A     71  59  66 CALM        N/A
YUMA CO          N/A     70  55  57 NW6         N/A
$$




USA.gov is the U.S. government's official web portal to all federal, state and local government web resources and services.